User: anonymous   Login
Location: Kott?ru
(16.6209°N, 80.6208°E)
Time: 05:09:07
(UTC+00:00)
Language:

GPS 2-18 Rocket1 - Orbit

View from above orbital plane
View from above orbital plane
View from above satellite
View from above satellite

Ground track
Ground track

The orbit data is extracted from the following two-line orbital elements,

1 22447U 93007B   20333.27832680 +.00004601 +00000-0 +14514-3 0  9994
2 22447 020.8519 193.6424 0040997 144.5771 215.7406 15.26556017525750
Epoch (UTC): 28 November 2020 06:40:47
Eccentricity: 0.0040997
inclination: 20.8519°
perigee height: 458 km
apogee height: 514 km
right ascension of ascending node: 193.6424°
argument of perigee: 144.5771°
revolutions per day: 15.26556017
mean anomaly at epoch: 215.7406°
orbit number at epoch: 52575

The dashed part of the orbit path shows where the satellite is in the earth's shadow,  

DLR